Weather History for Nagpur Sonegaon, India

Change the Weather History Date:

Saturday, January 18, 2014

  Actual Average Record
Temperature  
Mean Temperature 73 °F -  
Max Temperature 81 °F 86 °F - ()
Min Temperature 65 °F 57 °F - ()
Cooling Degree Days 8    
Growing Degree Days 23 (Base 50)    
Moisture  
Dew Point 60 °F    
Average Humidity 69    
Maximum Humidity 94    
Minimum Humidity 41    
Precipitation  
Precipitation 0.00 in 0.03 in - ()
Sea Level Pressure  
Sea Level Pressure 30.00 in    
Wind  
Wind Speed 4 mph ()    
Max Wind Speed 9 mph    
Max Gust Speed -    
Visibility 2.1 miles    
Events      
T = Trace of Precipitation, MM = Missing Value Source: Averaged Metar Reports

Daily Weather History Graph

Daily Weather History Graph

Search for Another Location

Airport:

Trip Planner

Search our weather history database for the weather conditions in past years. The results will help you decide how hot, cold, wet, or windy it might be!

Date:

Astronomy

Jan. 18, 2014 Rise Set
Actual Time 6:53 AM IST 5:54 PM IST
Civil Twilight 6:29 AM IST 6:18 PM IST
Nautical Twilight 6:02 AM IST 6:45 PM IST
Astronomical Twilight 5:35 AM IST 7:12 PM IST
Moon 7:48 PM IST (1/18) 7:57 AM IST (1/18)
Length of Visible Light 11h 48m
Length of Day
11h 01m
Waning Gibbous, 96% of the Moon is Illuminated
Jan 18
Waning Gibbous
Jan 24
Last Quarter
Jan 31
New
Feb 7
First Quarter
Feb 15
Full

Hourly Weather History & Observations

Time (IST) Temp. Heat Index Dew Point Humidity Pressure Visibility Wind Dir Wind Speed Gust Speed Precip Events Conditions
12:10 AM 73.4 °F - 59.0 °F 61% 29.92 in 2.5 mi South 9.2 mph - N/A   Haze
1:10 AM 71.6 °F - 59.0 °F 64% 29.89 in 2.5 mi South 6.9 mph - N/A   Haze
2:10 AM 66.2 °F - 62.6 °F 88% 29.95 in 1.9 mi WNW 4.6 mph - N/A   Haze
2:30 AM 68 °F - 66 °F 91% 29.93 in 1 mi NW 3.5 mph - -   Haze
2:40 AM 66.2 °F - 62.6 °F 88% 29.95 in 2.5 mi NW 3.5 mph - N/A   Haze
3:10 AM 66.2 °F - 62.6 °F 88% 29.95 in 2.5 mi WNW 2.3 mph - N/A   Haze
4:10 AM 66.2 °F - 62.6 °F 88% - 2.5 mi SSE 2.3 mph - N/A   Haze
5:10 AM 64.4 °F - 62.6 °F 94% 29.95 in - SSE 2.3 mph - N/A   Scattered Clouds
5:30 AM 67 °F - 65 °F 93% 29.94 in 1 mi South 2.3 mph - -   Haze
5:40 AM 66.2 °F - 62.6 °F 88% 29.95 in 1.9 mi SSW 2.3 mph - N/A   Haze
6:10 AM 66.2 °F - 62.6 °F 88% 29.98 in 1.9 mi West 2.3 mph - N/A   Haze
6:40 AM 66.2 °F - 62.6 °F 88% 29.98 in 1.9 mi West 2.3 mph - N/A   Haze
7:10 AM 64.4 °F - 62.6 °F 94% 29.98 in 1.9 mi West 2.3 mph - N/A   Haze
7:40 AM 64.4 °F - 60.8 °F 88% 30.01 in 1.6 mi West 2.3 mph - N/A   Mostly Cloudy
8:10 AM 66.2 °F - 60.8 °F 83% 30.04 in 1.6 mi West 2.3 mph - N/A   Partly Cloudy
8:30 AM 69 °F - 66 °F 86% 30.03 in 1 mi WNW 2.3 mph - -   Mist
8:40 AM 68.0 °F - 60.8 °F 78% 30.04 in 1.6 mi NW 2.3 mph - N/A   Partly Cloudy
9:40 AM 69.8 °F - 59.0 °F 68% 30.06 in 1.9 mi North 3.5 mph - N/A   Haze
10:10 AM 71.6 °F - 59.0 °F 64% 30.06 in 1.9 mi NNE 2.3 mph - N/A   Haze
11:10 AM 73.4 °F - 59.0 °F 61% 30.06 in 1.9 mi NNE 3.5 mph - N/A   Haze
11:30 AM 76 °F - 59 °F 46% 30.03 in 2 mi NW 3.5 mph - -   Haze
11:40 AM 73.4 °F - 59.0 °F 61% 30.06 in 2.5 mi NW 4.6 mph - N/A   Haze
12:10 PM 75.2 °F - 59.0 °F 57% 30.04 in 2.5 mi NNW 3.5 mph - N/A   Haze
12:40 PM 77.0 °F - 59.0 °F 54% 30.01 in 2.5 mi WNW 4.6 mph - N/A   Haze
1:10 PM 78.8 °F - 60.8 °F 54% 30.01 in 2.5 mi NW 4.6 mph - N/A   Haze
1:40 PM 80.6 °F 81.5 °F 60.8 °F 51% 29.98 in 2.5 mi NW 4.6 mph - N/A   Haze
2:10 PM 77.0 °F - 59.0 °F 54% 29.98 in 2.5 mi NNW 4.6 mph - N/A   Haze
2:30 PM 79 °F - 60 °F 41% 29.93 in 2 mi NNW 3.5 mph - -   Haze
3:10 PM 78.8 °F - 59.0 °F 51% 29.98 in 2.5 mi NW 4.6 mph - N/A   Haze
3:40 PM 78.8 °F - 59.0 °F 51% 29.98 in 2.5 mi NNW 3.5 mph - N/A   Haze
4:10 PM 78.8 °F - 59.0 °F 51% 29.95 in 2.5 mi NNE 2.3 mph - N/A   Haze
4:40 PM 77.0 °F - 59.0 °F 54% 29.98 in 2.5 mi North 5.8 mph - N/A   Haze
5:10 PM 75.2 °F - 59.0 °F 57% 29.98 in 2.5 mi NNW 6.9 mph - N/A   Haze
5:30 PM 75 °F - 59 °F 48% 29.96 in 2 mi NNW 5.8 mph - -   Haze
5:40 PM 73.4 °F - 57.2 °F 57% 29.98 in 2.5 mi NNW 5.8 mph - N/A   Haze
6:10 PM - - - N/A% 30.01 in 2.5 mi North 6.9 mph - N/A   Haze
7:10 PM 71.6 °F - 55.4 °F 57% 30.04 in 2.5 mi North 3.5 mph - N/A   Haze
7:40 PM 69.8 °F - 55.4 °F 60% 30.04 in 2.2 mi NNE 2.3 mph - N/A   Haze
8:10 PM 69.8 °F - 57.2 °F 64% 30.06 in 2.2 mi Calm Calm - N/A   Haze
8:30 PM 70 °F - 61 °F 65% 30.04 in 1 mi Calm Calm - -   Haze
9:10 PM 69.8 °F - 59.0 °F 68% 30.06 in 1.9 mi Calm Calm - N/A   Haze
9:40 PM 69.8 °F - 59.0 °F 68% 30.09 in 1.9 mi NE 3.5 mph - N/A   Haze
10:10 PM 69.8 °F - 59.0 °F 68% 30.09 in 1.9 mi ENE 4.6 mph - N/A   Haze
10:40 PM 68.0 °F - 60.8 °F 78% 30.09 in 1.9 mi ENE 4.6 mph - N/A   Haze
11:10 PM 68.0 °F - 60.8 °F 78% 30.09 in 1.9 mi NE 3.5 mph - N/A   Haze
11:30 PM 70 °F - 63 °F 72% 30.08 in 1 mi NE 3.5 mph - -   Haze